[[{"header":{"parameterUnit":"m.s-1","parameterCategory":1,"la1":30.2991,"la2":30.254,"lo1":-89.0895,"lo2":-89.0444,"dy":0.0017,"dx":0.0017,"nx":28,"ny":28,"refTime":"2026-02-26T09:00:00:Z","depth":0,"parameterNumber":2,"parameterNumberName":"U-component_of_WINDS"},"data":[0,0,0,0,0,0,0,0,0,0,0,0,0,0,0,0,0,0,0,0,0,0,0,0,0,0,0,0,0,0,0,0,0,0,0,0,0,0,0,0,0,0,0,0,0,0,0,0,0,0,0,0,0,0,0,0,0,0,0.7726,0.7726,0,0.7793,0.7794,0.7795,0.7784,0.7782,0.7781,0.778,0.7853,0.7855,0.7858,0,0,0,0,0,0,0,0,0,0,0,0,0,0.7589,0.7591,0.7726,0.7726,0.7727,0.7793,0.7794,0.7795,0.7784,0.7782,0.7781,0.778,0.7852,0.7855,0.7859,0,0,0,0,0,0,0,0,0,0,0,0,0,0.7651,0.7592,0.7725,0.7729,0.773,0.7793,0.7794,0.7795,0.7784,0.7782,0.778,0.7779,0.785,0.7855,0.7859,0.7923,0,0,0.7873,0.7875,0,0,0,0,0,0,0,0,0.7648,0.7657,0.7728,0.7729,0.7731,0.7778,0.7772,0.7838,0.7785,0.7764,0.778,0.7778,0.7829,0.7836,0.7852,0.7926,0.793,0.7874,0.7876,0.7878,0.788,0,0,0,0,0,0,0,0.7644,0.7654,0.7753,0.7729,0.7731,0.7729,0.7736,0.7785,0.7806,0.7765,0.7765,0.7773,0.783,0.7848,0.7854,0.7931,0.7873,0.7877,0.788,0.7882,0.8061,0.8063,0,0,0,0,0,0,0.7638,0.765,0.775,0.7755,0.7684,0.7733,0.774,0.7765,0.7805,0.781,0.7774,0.7772,0.7841,0.7849,0.7856,0.7935,0.7878,0.7883,0.7885,0.8059,0.8062,0.8064,0,0,0,0,0,0,0.7635,0.7647,0.7748,0.7702,0.7715,0.7737,0.7764,0.7767,0.7785,0.7812,0.7816,0.7789,0.784,0.785,0.7907,0.7937,0.7885,0.7889,0.8057,0.806,0.8063,0.8091,0,0,0,0,0,0,0.7631,0.7646,0.767,0.7703,0.7717,0.7796,0.7766,0.777,0.7793,0.779,0.7827,0.7831,0.7839,0.79,0.7911,0.7942,0.7892,0.8054,0.8058,0.8062,0.8088,0.8095,0.8101,0,0,0,0,0,0.7626,0.7676,0.7671,0.7683,0.7748,0.7798,0.7806,0.7814,0.7795,0.782,0.7837,0.783,0.7931,0.7906,0.7918,0.7951,0.8052,0.8057,0.8061,0.8085,0.8093,0.8101,0,0,0,0,0,0,0.7647,0.768,0.7675,0.7737,0.7764,0.7796,0.7827,0.7823,0.7857,0.7854,0.7863,0.7871,0.7928,0.7945,0.7916,0.8015,0.7989,0.7997,0.8003,0.8011,0.8018,0.8013,0.7896,0,0,0,0,0,0.7658,0.7695,0.7723,0.7774,0.7788,0.7805,0.7827,0.7831,0.786,0.7872,0.7893,0.7923,0.7962,0.7987,0.8024,0.8089,0.8098,0.8118,0.8125,0.813,0.8137,0.8173,0.8183,0.8079,0.8079,0.8079,0,0,0.7683,0.7706,0.7729,0.7779,0.7801,0.784,0.7815,0.7858,0.7887,0.7879,0.7934,0.795,0.7984,0.8045,0.8073,0.8061,0.8167,0.8136,0.814,0.8144,0.8179,0.8189,0.8198,0.8082,0.8081,0.8081,0,0,0.7748,0.7768,0.7814,0.7836,0.7869,0.788,0.7891,0.7923,0.7933,0.7988,0.7982,0.8018,0.8084,0.8108,0.8129,0.8203,0.8198,0.8214,0.825,0.8285,0.8293,0.8301,0.8328,0.8338,0.8221,0.8221,0.8221,0,0.7775,0.7833,0.7838,0.7881,0.7904,0.7897,0.7944,0.7965,0.8009,0.8025,0.801,0.8093,0.8115,0.8182,0.82,0.8217,0.823,0.8211,0.8292,0.8299,0.8306,0.8332,0.8342,0.8223,0.8222,0.8222,0.8222,0,0.7865,0.7905,0.7938,0.798,0.8006,0.8051,0.8064,0.809,0.809,0.8103,0.8159,0.8185,0.8227,0.8243,0.8244,0.8311,0.8302,0.8289,0.8264,0.8318,0.8343,0.8353,0.8225,0.8225,0.8224,0.8224,0,0,0.7947,0.799,0.8002,0.8021,0.8056,0.8088,0.8132,0.8173,0.8195,0.8225,0.8264,0.8319,0.8308,0.8331,0.8335,0.8366,0.8424,0.835,0.8351,0.8364,0.85,0.851,0.8522,0.842,0.8422,0.8424,0.8497,0,0.8017,0.8094,0.81,0.8171,0.8209,0.8202,0.8241,0.8267,0.828,0.8314,0.8329,0.8368,0.8349,0.8364,0.8394,0.8411,0.8452,0.8405,0.8457,0.8459,0.8451,0.8535,0.8546,0.8614,0.8507,0.8509,0.851,0,0.8109,0.8141,0.8215,0.8245,0.8261,0.8296,0.8334,0.8366,0.8396,0.8403,0.8429,0.8429,0.8475,0.8446,0.8511,0.8479,0.85,0.8512,0.8515,0.8521,0.8489,0.8545,0.8636,0.8647,0.8525,0.8524,0.8523,0,0.8163,0.8224,0.8277,0.8293,0.8329,0.8354,0.837,0.8398,0.8422,0.8454,0.847,0.8508,0.8529,0.8559,0.8569,0.8547,0.8634,0.8606,0.8642,0.8642,0.8663,0.8661,0.876,0.8674,0.8673,0.8673,0.8673,0,0.8241,0.8287,0.8302,0.8334,0.8386,0.8392,0.8443,0.8458,0.8482,0.8518,0.8514,0.8548,0.8559,0.8595,0.8603,0.8656,0.8665,0.8673,0.8675,0.8674,0.8673,0.869,0.8686,0.8676,0.8675,0.8675,0.8674,0,0.8311,0.8322,0.8379,0.8408,0.8416,0.8453,0.8479,0.851,0.8521,0.8567,0.8578,0.8597,0.8639,0.8651,0.8702,0.8707,0.8769,0.8766,0.8759,0.876,0.8796,0.8793,0.891,0.8926,0.8828,0.8829,0.883,0,0.8361,0.8396,0.8428,0.8452,0.8469,0.8507,0.8531,0.8538,0.8563,0.8599,0.8627,0.8668,0.8701,0.8769,0.8787,0.8826,0.8825,0.8863,0.8831,0.8829,0.8827,0.8825,0.8829,0.887,0.8871,0.8872,0.8872,0,0.8449,0.8452,0.8487,0.8524,0.8552,0.8581,0.861,0.8629,0.864,0.8669,0.8711,0.8737,0.8788,0.883,0.8869,0.8886,0.8882,0.8882,0.8893,0.8893,0.8888,0.8893,0.8778,0.888,0.8879,0.8879,0.8878,0.8878,0.8511,0.8542,0.857,0.8609,0.863,0.8657,0.8688,0.8703,0.8738,0.878,0.8782,0.8828,0.8857,0.8909,0.8928,0.8965,0.8954,0.8969,0.8973,0.8977,0.8981,0.8881,0.8972,0.8971,0.8971,0.8971,0.8971,0,0.86,0.8617,0.8653,0.8692,0.8722,0.8714,0.8744,0.8771,0.8811,0.8838,0.887,0.8919,0.8959,0.898,0.902,0.9045,0.9044,0.9056,0.9055,0.9059,0.8988,0.8975,0.9056,0.9056,0.9056,0.9056,0.9056,0.9056,0.865,0.8703,0.871,0.8773,0.879,0.8835,0.8853,0.8877,0.8899,0.8953,0.8986,0.8999,0.9023,0.9065,0.9101,0.9106,0.9122,0.9135,0.9139,0.9072,0.9064,0.9056,0.9044,0.9137,0.9138,0.9207,0.9207,0.9208]},{"header":{"parameterUnit":"m.s-1","parameterCategory":1,"la1":30.2991,"la2":30.254,"lo1":-89.0895,"lo2":-89.0444,"dy":0.0017,"dx":0.0017,"nx":28,"ny":28,"refTime":"2026-02-26T09:00:00:Z","depth":0,"parameterNumber":3,"parameterNumberName":"V-component_of_WINDS"},"data":[0,0,0,0,0,0,0,0,0,0,0,0,0,0,0,0,0,0,0,0,0,0,0,0,0,0,0,0,0,0,0,0,0,0,0,0,0,0,0,0,0,0,0,0,0,0,0,0,0,0,0,0,0,0,0,0,0,0,1.3719,1.372,0,1.3756,1.3756,1.3756,1.3754,1.3753,1.3753,1.3752,1.379,1.3791,1.3793,0,0,0,0,0,0,0,0,0,0,0,0,0,1.3646,1.3648,1.3719,1.372,1.372,1.3756,1.3756,1.3757,1.3754,1.3753,1.3753,1.3752,1.3789,1.3791,1.3793,0,0,0,0,0,0,0,0,0,0,0,0,0,1.368,1.3648,1.3719,1.3723,1.3724,1.3755,1.3756,1.3757,1.3754,1.3753,1.3753,1.3752,1.3789,1.3791,1.3793,1.3823,0,0,1.38,1.3801,0,0,0,0,0,0,0,0,1.3678,1.3683,1.3722,1.3723,1.3724,1.3749,1.3744,1.3779,1.3754,1.3743,1.3752,1.3751,1.3777,1.378,1.3789,1.3825,1.3827,1.38,1.3801,1.3802,1.3803,0,0,0,0,0,0,0,1.3676,1.3681,1.3734,1.3723,1.3724,1.3723,1.3727,1.3751,1.3764,1.3744,1.3743,1.3748,1.3777,1.3787,1.379,1.3827,1.38,1.3802,1.3803,1.3804,1.3889,1.3889,0,0,0,0,0,0,1.3673,1.3679,1.3732,1.3735,1.3698,1.3725,1.3729,1.3742,1.3764,1.3766,1.3748,1.3748,1.3783,1.3787,1.3791,1.3827,1.3802,1.3805,1.3806,1.3888,1.3889,1.389,0,0,0,0,0,0,1.3671,1.3677,1.3731,1.3707,1.3714,1.3727,1.3741,1.3743,1.3752,1.3767,1.377,1.3756,1.3783,1.3788,1.3815,1.3828,1.3806,1.3808,1.3887,1.3888,1.3889,1.39,0,0,0,0,0,0,1.3669,1.3677,1.3689,1.3707,1.3715,1.3755,1.3742,1.3744,1.3756,1.3755,1.3775,1.3777,1.3782,1.3812,1.3817,1.3831,1.3809,1.3886,1.3887,1.3889,1.3898,1.3901,1.3904,0,0,0,0,0,1.3666,1.369,1.3689,1.3696,1.373,1.3756,1.376,1.3766,1.3757,1.3769,1.3779,1.3776,1.3826,1.3814,1.3821,1.3835,1.3885,1.3887,1.3889,1.3897,1.3901,1.3904,0,0,0,0,0,0,1.3674,1.3693,1.3692,1.3723,1.3737,1.3755,1.377,1.3769,1.3787,1.3785,1.3791,1.3796,1.3823,1.3832,1.3819,1.3865,1.3854,1.3858,1.3858,1.3862,1.3865,1.3862,1.3811,0,0,0,0,0,1.3679,1.3698,1.3714,1.3739,1.3747,1.3757,1.3768,1.3771,1.3787,1.3793,1.3805,1.382,1.3838,1.3851,1.3869,1.3899,1.3903,1.3913,1.3915,1.3918,1.392,1.3936,1.3941,1.3896,1.3896,1.3896,0,0,1.369,1.3703,1.3714,1.3741,1.3753,1.3772,1.3763,1.3784,1.3798,1.3796,1.3823,1.3831,1.3848,1.3877,1.3891,1.3885,1.3933,1.392,1.3922,1.3924,1.3939,1.3943,1.3947,1.3898,1.3898,1.3897,0,0,1.372,1.3731,1.3754,1.3765,1.3783,1.379,1.3795,1.3812,1.3818,1.3844,1.3843,1.386,1.3893,1.3905,1.3915,1.3948,1.3946,1.3953,1.3968,1.3984,1.3987,1.399,1.4001,1.4005,1.3956,1.3956,1.3956,0,1.3731,1.376,1.3765,1.3786,1.3798,1.3797,1.3819,1.383,1.3853,1.3861,1.3855,1.3895,1.3906,1.3937,1.3945,1.3954,1.3959,1.3951,1.3986,1.3989,1.3992,1.4003,1.4007,1.3957,1.3957,1.3957,1.3957,0,1.3773,1.3793,1.3809,1.3831,1.3844,1.3865,1.3873,1.3886,1.3887,1.3894,1.3921,1.3934,1.3955,1.3962,1.3964,1.3993,1.399,1.3985,1.3974,1.3997,1.4007,1.4012,1.3958,1.3958,1.3958,1.3957,0,0,1.381,1.3833,1.3838,1.3848,1.3866,1.3882,1.3903,1.3923,1.3933,1.3949,1.3966,1.3993,1.3988,1.4,1.4003,1.4017,1.4041,1.401,1.401,1.4015,1.4073,1.4077,1.4081,1.404,1.4041,1.4041,1.4072,0,1.3841,1.3879,1.3883,1.3916,1.3934,1.3933,1.3951,1.3965,1.3971,1.3988,1.3995,1.4014,1.4006,1.4013,1.4027,1.4035,1.4053,1.4033,1.4056,1.4057,1.4052,1.4087,1.4091,1.4119,1.4076,1.4076,1.4077,0,1.3883,1.3899,1.3934,1.3949,1.3957,1.3973,1.3991,1.4007,1.4021,1.4025,1.4038,1.4039,1.406,1.4048,1.4077,1.4063,1.4073,1.4078,1.4079,1.4082,1.4068,1.409,1.4128,1.4132,1.4083,1.4083,1.4082,0,1.3906,1.3936,1.396,1.3968,1.3987,1.3998,1.4006,1.402,1.4031,1.4047,1.4054,1.4072,1.4082,1.4095,1.4101,1.4092,1.4129,1.4118,1.4133,1.4132,1.4141,1.414,1.4181,1.4147,1.4147,1.4147,1.4147,0,1.394,1.3962,1.3971,1.3986,1.4009,1.4014,1.4037,1.4044,1.4057,1.4073,1.4073,1.4088,1.4094,1.411,1.4114,1.4137,1.4142,1.4145,1.4146,1.4145,1.4145,1.4152,1.415,1.4148,1.4148,1.4148,1.4147,0,1.397,1.3977,1.4003,1.4018,1.4022,1.4039,1.4051,1.4066,1.4072,1.4092,1.4097,1.4107,1.4126,1.4132,1.4155,1.4158,1.4184,1.4184,1.418,1.418,1.4194,1.4192,1.424,1.4247,1.4209,1.4209,1.421,0,1.3991,1.4008,1.4024,1.4035,1.4043,1.4061,1.4072,1.4077,1.4088,1.4105,1.4117,1.4136,1.4151,1.4181,1.419,1.4207,1.4206,1.4222,1.4209,1.4207,1.4206,1.4205,1.4206,1.4224,1.4225,1.4225,1.4225,0,1.4029,1.4031,1.4047,1.4064,1.4078,1.4091,1.4105,1.4113,1.412,1.4133,1.4152,1.4164,1.4186,1.4205,1.4222,1.423,1.4229,1.4229,1.4234,1.4233,1.4229,1.4231,1.4186,1.4228,1.4228,1.4228,1.4228,1.4228,1.4055,1.4069,1.4082,1.41,1.411,1.4122,1.4136,1.4144,1.416,1.4178,1.418,1.42,1.4213,1.4237,1.4245,1.4261,1.4257,1.4263,1.4265,1.4266,1.4267,1.4227,1.4264,1.4264,1.4264,1.4264,1.4264,0,1.4092,1.41,1.4117,1.4135,1.4148,1.4146,1.416,1.4171,1.4189,1.4201,1.4216,1.4237,1.4254,1.4264,1.4281,1.4292,1.4292,1.4296,1.4295,1.4297,1.427,1.4264,1.4296,1.4296,1.4296,1.4296,1.4296,1.4296,1.4113,1.4136,1.414,1.4168,1.4176,1.4196,1.4204,1.4215,1.4224,1.4248,1.4262,1.4268,1.428,1.4297,1.4313,1.4315,1.4321,1.4326,1.4328,1.4302,1.4299,1.4296,1.4291,1.4328,1.4328,1.4354,1.4354,1.4354]}]]